Location: Darmstadt
(49.8706°N, 8.6494°E)
Time: 06:54:07
(UTC+01:00)

Okean-O - Pass Details

Date: 31 October 2020
Orbit: 638 x 641 km, 98.2° (Epoch: 03 December)

Event Time Altitude Azimuth Distance (km) Brightness Sun altitude
Rises 18:09:49 0° 144° (SE) 2,937 5.8 -11.1°
Reaches altitude 10° 18:12:05 10° 138° (SE) 2,032 4.9 -11.5°
Maximum altitude 18:16:15 42° 68° (ENE) 924 3.0 -12.1°
Drops below altitude 10° 18:20:26 10° 358° (N) 2,046 5.2 -12.8°
Sets 18:22:44 0° 352° (N) 2,959 6.1 -13.2°
